Regional Weather Roundup
Issued by NWS State College, PA

Home | Current Version | Previous Version | Graphics & Text | Print | Product List | Glossary On
Versions: 1 2 3 4 5 6 7 8 9 10 11 12 13 14 15 16 17 18 19 20 21 22 23 24 25 26 27 28 29 30 31 32 33 34 35 36 37 38 39 40 41 42 43 44 45 46 47 48 49 50
000
ASUS41 KCTP 282010
RWRCTP

REGIONAL WEATHER ROUNDUP
NATIONAL WEATHER SERVICE STATE COLLEGE PA
400 PM EDT FRI AUG 28 2015

Note: "fair" indicates few or no clouds below 12,000 feet with no
significant weather and/or obstructions to visibility.

* = STATION THAT DOES NOT REPORT PRECIPITATION /E.G. RAIN...SNOW...ETC/
    THUNDER OR FOG.

PAZ002>004-007>009-013>016-020>023-029>032-282100-
WESTERN PENNSYLVANIA

CITY           SKY/WX    TMP DP  RH WIND       PRES   REMARKS
ERIE           SUNNY     72  55  55 N7        30.18F
MEADVILLE      PTSUNNY   72  53  51 CALM      30.19F
FRANKLIN*      PTSUNNY   75  54  46 SW3       30.21F
NEW CASTLE     FAIR      77  56  48 CALM      30.18F
BEAVER COUNTY  CLOUDY    77  54  44 NE3       30.18F
BUTLER*        PTSUNNY   75  52  43 N5        30.20F
PITTSBURGH INT MOSUNNY   78  50  37 W3        30.17F
PITTSBURGH     SUNNY     77  45  32 VRB3      30.17F
INDIANA*       SUNNY     77  54  44 CALM      30.22F
LATROBE        MOSUNNY   77  50  38 CALM      30.18F
WASHINGTON CO* MOSUNNY   77  50  38 SE5       30.18F
$$

PAZ004>006-010>012-017>019-024>028-033>037-041-042-045-046-049>053-282100-
CENTRAL PENNSYLVANIA

CITY           SKY/WX    TMP DP  RH WIND       PRES   REMARKS
BRADFORD       MOSUNNY   73  50  44 VRB6      30.21F
DUBOIS         CLOUDY    74  51  44 N3        30.20F
CLEARFIELD     MOSUNNY   76  52  43 VRB5      30.20F
JOHNSTOWN      MOSUNNY   74  48  39 NW8       30.21F
ALTOONA        SUNNY     78  50  37 S5        30.20F
STATE COLLEGE  MOSUNNY   73  55  53 CALM      30.19F
WILLIAMSPORT   MOSUNNY   78  53  41 SW6       30.16F
SELINSGROVE    MOSUNNY   79  58  48 VRB5      30.17F
FT INDIANTOWN  MOSUNNY   79  54  42 W6        30.16F
CAPITAL CITY   MOSUNNY   80  53  39 VRB5      30.16F
HARRISBURG     MOSUNNY   81  55  40 CALM      30.15F
YORK           SUNNY     79  57  46 VRB3      30.16F
$$

PAZ038>040-043-044-047-048-054-055-060>062-067>071-282100-
EASTERN PENNSYLVANIA

CITY           SKY/WX    TMP DP  RH WIND       PRES   REMARKS
SCRANTON       MOSUNNY   74  51  44 N3        30.18F
MOUNT POCONO   PTSUNNY   72  51  47 N5        30.21S
ALLENTOWN      MOSUNNY   80  55  42 VRB6      30.16F
QUAKERTOWN*    PTCLDY    79  55  44 W5        30.17F
READING        MOSUNNY   80  57  45 VRB5      30.15F
LANCASTER      SUNNY     78  55  44 W7        30.16F
COATESVILLE    CLEAR     77  55  47 NW7       30.17F
POTTSTOWN      MOSUNNY   78  56  46 VRB3      30.17F
BLUE BELL      SUNNY     79  57  47 N3        30.15F
DOYLESTOWN     MOSUNNY   78  54  43 VRB6      30.15F
WILLOW GROVE   NOT AVBL
NORTH PHILA    SUNNY     82  52  35 W6        30.16F
PHILADELPHIA   MOSUNNY   82  53  36 N7        30.15F
$$



USA.gov is the U.S. government's official web portal to all federal, state and local government web resources and services.